Find Starlink 32100

NORAD ID: 59686 Int'l Des: 2024-086 Owner: SPXS Country: US Constellation: starlink operational
LEOCIRCULAR

实时位置

正在加载3D地球...

关于 Starlink 32100

正在加载描述...

即将过境

Passes for default location (London). Set your location on the main map for personalized predictions.

高度历史

Loading altitude history...

两行轨道根数

1 59686U 24086E 26125.34703627 .00000980 00000-0 45131-4 0 9997
2 59686 43.0036 81.8191 0001336 269.2041 90.8658 15.27580942112987
Epoch: May 5, 2026 • Age: 14 hours

当前状态

高度 483.3 km
速度 7.63 km/s
星下点 24.05°N, 96.1°W
发射日期 May 8, 2024
运行时间 1.9 years
类型 internet

技术详情

分类 Payload
质量 730.00 kg
干质量 700.00 kg
总质量 730.00 kg
长度 0.30 m
直径 4.10 m
跨度 29.00 m
形状 Box + pan
制造商 SPXS
平台类型 Starlink V2M
阶段状态 In Orbit
所有者/国家 SPXS/US

Most Searched